Zurück zum Katalog

STARLINK-35601

AktivKommunikationVLEO
NORAD 66149·PAYLOAD·🇺🇸 United States

Gestartet Oct 25, 2025 von Cape Canaveral Space Force Station

Loading…

Nächste Überflüge (nächste 24 Stunden)

TLE

AktuellSource: CelesTrak SupGP

Epoche: Sep 14, 2026, 22:54 UTC

1 66149C 25240D   26257.95465278  .00038726  00000+0  11440-2 0  2571
2 66149  53.1565 261.4247 0001339  94.3662  57.6798 15.34374502    12

Verfolge STARLINK-35601 in Echtzeit mit AllMySat

Download on the App Store